This is the latest recevied weather packets stored in our database for station/object KB4MOX. If no packets are shown the sender has not sent any weather packets the latest 10 day(s).
| Time | Temp. | Humidity | Pressure | Rain* | Wind** | Luminosity | Snow |
|---|---|---|---|---|---|---|---|
| 1787876989 | 21.67° C | 96% | 1015 hPa | 0 mm | - | 0 W/m² | - |
| 1787876685 | 21.67° C | 96% | 1015.1 hPa | 0 mm | - | 0 W/m² | - |
| 1787876380 | 22.22° C | 96% | 1015.1 hPa | 0 mm | - | 0 W/m² | - |
| 1787876078 | 22.22° C | 96% | 1014.9 hPa | 0 mm | - | 0 W/m² | - |
| 1787875774 | 21.67° C | 96% | 1014.8 hPa | 0 mm | - | 0 W/m² | - |
| 1787875472 | 21.67° C | 95% | 1014.8 hPa | 0 mm | - | 1 W/m² | - |
| 1787875166 | 21.67° C | 95% | 1014.7 hPa | 0 mm | - | 1 W/m² | - |
| 1787874861 | 21.67° C | 95% | 1014.8 hPa | 0 mm | - | 1 W/m² | - |
| 1787874560 | 21.67° C | 95% | 1015 hPa | 0 mm | - | 2 W/m² | - |
| 1787874254 | 21.67° C | 95% | 1015 hPa | 0 mm | - | 2 W/m² | - |
| 1787873949 | 21.67° C | 95% | 1014.8 hPa | 0 mm | - | 2 W/m² | - |
| 1787873648 | 21.67° C | 95% | 1015.2 hPa | 0 mm | - | 3 W/m² | - |
| 1787873343 | 21.67° C | 95% | 1015.1 hPa | 0 mm | - | 4 W/m² | - |
| 1787873042 | 21.67° C | 95% | 1015.2 hPa | 0 mm | - | 5 W/m² | - |
| 1787872738 | 21.67° C | 95% | 1015.5 hPa | 0 mm | - | 5 W/m² | - |
| 1787872434 | 21.67° C | 95% | 1015.3 hPa | 0 mm | - | 7 W/m² | - |
| 1787872134 | 21.67° C | 95% | 1015.4 hPa | 0 mm | - | 10 W/m² | - |
| 1787871833 | 21.67° C | 94% | 1015.6 hPa | 0 mm | - | 13 W/m² | - |
| 1787871528 | 21.67° C | 94% | 1015.4 hPa | 0 mm | - | 17 W/m² | - |
| 1787871224 | 21.67° C | 94% | 1015.6 hPa | 0 mm | - | 20 W/m² | - |
| 1787870918 | 21.67° C | 93% | 1015.6 hPa | 0 mm | - | 13 W/m² | - |
| 1787870613 | 21.67° C | 93% | 1015.7 hPa | 1.27 mm | - | 8 W/m² | - |
| 1787870308 | 21.67° C | 92% | 1015.8 hPa | 1.27 mm | - | 9 W/m² | - |
| 1787870003 | 21.67° C | 91% | 1015.9 hPa | 3.05 mm | - | 11 W/m² | - |
| 1787869703 | 22.22° C | 90% | 1016.1 hPa | 3.05 mm | - | 5 W/m² | - |
* Rain latest hour (hover to see other rain measurements)
** Current wind speed in m/s (hover to see current wind gust speed)